Location: Moscow
(55.7500°N, 37.5830°E)
Time: 17:36:33
(UTC+03:00)

ISS - Pass Details

Date: 19 March 2026
Orbit: 416 x 425 km, 51.6° (Epoch: 19 April)

Event Time Altitude Azimuth Distance (km) Brightness Sun altitude
Rises 21:53:41 0° 272° (W) 2,387 0.8 -25.5°
Reaches altitude 10° 21:56:00 10° 260° (W) 1,518 -0.5 -25.7°
Enters shadow 21:56:35 13° 253° (WSW) 1,324 -0.9 -25.8°
